Temp
16 16 15 15 14 14 14 14 13 13 13 13 13 13 12 12 12 12 12 12 11 11 11 11 11 11 11 11 11 11 11 11 10 10 10 10 10 10 10 10 10 10 11 12 12 13 14 14 15 16 16 16 16 16 16 16 16 15 15 15 15 15 15 15 15 15 17 17 17 18 18 17 16 16 16 16 14 14 15 15 15 15 14 14 14
16 16 15 15 14 14 14 13 13 13 13 13 12 12 12 12 12 12 12 11 12 12 12 11 11 11 11 11 11 10 10 10 10 10 10 9 9 9 9 9 9 9 10 11 11 12 13 14 14 15 16 16 17 16 16 16 16 15 15 15 15 15 15 15 15 15 16 16 16 17 17 17 16 15 16 16 14 14 14 14 14 14 14 14 13
16 15 15 15 14 14 14 13 13 13 13 13 12 12 12 12 12 12 11 11 12 12 12 11 11 11 11 11 11 11 10 10 10 10 9 9 9 9 9 9 9 9 9 10 10 11 12 12 13 14 15 16 16 17 16 16 16 16 15 15 15 16 15 15 15 15 15 16 16 16 16 16 16 15 15 15 15 14 13 13 13 13 13 13 13
16 15 15 15 14 14 14 13 13 13 13 12 12 12 12 12 12 12 11 12 12 12 12 11 11 11 11 11 11 10 10 10 10 9 9 9 9 9 9 9 9 9 9 9 10 10 11 11 12 13 13 14 15 16 17 17 16 16 16 16 15 15 15 15 15 16 16 16 16 16 16 17 16 15 15 15 14 13 13 12 12 12 12 12 12
16 16 15 15 14 14 14 13 13 13 12 12 12 12 12 12 12 12 11 11 11 11 11 11 11 11 11 10 10 10 10 10 9 9 9 9 9 9 9 8 9 9 9 9 9 10 10 11 11 12 12 13 14 15 16 17 17 17 16 16 15 15 16 16 16 16 16 16 16 16 16 16 16 15 14 14 13 12 11 11 11 10 10 11 11
16 16 15 15 14 14 13 13 13 13 13 12 12 12 12 12 12 11 11 11 11 11 11 11 11 11 10 10 10 10 10 9 9 9 9 9 9 9 9 8 8 8 8 9 9 9 9 10 11 11 12 12 13 14 15 16 17 17 17 16 16 16 16 16 16 15 16 16 16 15 15 15 15 14 14 13 13 12 11 11 10 10 9 10 10
16 16 15 15 14 14 13 13 13 13 13 12 12 12 12 11 11 11 11 11 11 11 11 10 10 10 10 10 10 9 9 9 9 9 9 9 9 9 8 8 8 8 8 8 8 9 9 9 10 11 11 12 12 13 14 15 16 16 17 17 16 16 16 16 15 15 16 16 16 15 15 15 14 14 13 13 13 12 11 10 9 9 9 10 10
16 16 15 15 14 14 13 13 13 13 12 12 12 12 11 11 11 11 11 10 10 10 10 10 10 10 9 9 9 9 9 9 9 9 9 9 9 8 8 8 8 8 8 8 8 8 8 8 9 9 10 11 12 12 13 14 15 15 16 16 16 16 16 16 15 14 15 16 16 15 14 14 14 13 12 12 12 12 11 10 9 9 9 9 9
16 16 16 15 14 14 14 13 13 13 12 12 12 12 11 11 11 10 10 10 10 10 10 9 9 9 9 9 9 9 9 8 8 8 8 8 8 8 8 8 8 8 8 8 8 8 8 8 8 8 9 10 10 11 12 13 14 14 15 16 16 16 16 15 15 14 14 14 15 15 14 13 13 12 12 12 12 12 11 10 9 8 8 8 8
16 16 15 15 14 14 14 13 13 12 12 12 12 11 11 11 10 10 10 10 10 10 9 9 9 9 8 8 8 8 8 8 8 8 8 8 8 8 8 8 8 8 8 8 8 8 8 8 8 8 8 9 9 10 11 12 13 13 14 14 14 14 14 14 14 14 14 14 15 14 13 13 13 12 12 12 12 11 10 9 8 7 7 7 6
16 16 15 15 14 14 14 13 13 12 12 12 12 11 11 11 10 10 10 10 10 10 9 9 8 8 8 8 8 8 8 8 8 8 8 8 8 7 7 7 7 7 7 7 7 7 8 8 8 8 8 8 9 9 10 11 11 12 13 14 14 14 13 13 13 14 14 14 14 14 14 12 12 13 13 12 12 11 10 9 8 7 7 7 6
16 15 15 15 14 14 14 13 13 13 12 12 12 12 11 11 10 10 10 10 10 9 9 8 8 8 7 7 7 7 7 7 7 7 7 7 7 7 7 6 7 7 7 6 6 6 7 7 7 8 8 8 9 9 10 10 11 12 12 13 13 14 14 13 13 13 14 14 14 14 14 13 12 13 13 13 12 11 10 9 9 8 7 7 7
16 15 15 15 14 14 13 13 13 13 12 12 12 12 11 10 10 10 10 10 10 9 8 8 8 7 7 7 7 7 6 6 6 6 6 6 6 6 6 6 6 6 6 6 6 6 6 6 6 7 7 8 9 9 9 10 11 11 12 12 13 14 14 14 14 13 14 14 14 14 14 13 13 13 13 13 12 11 10 9 9 8 8 8 8
16 15 15 15 14 14 13 13 13 13 12 12 12 11 11 10 10 10 10 10 9 8 8 8 7 7 7 7 6 6 6 6 6 6 6 6 6 5 5 5 5 5 5 6 6 6 6 6 6 6 6 7 8 9 9 10 11 12 12 13 13 13 14 14 14 14 14 14 14 14 14 13 13 13 13 13 12 11 10 10 10 9 9 9 9
15 15 15 15 14 14 13 13 13 12 12 12 12 11 10 10 10 10 10 9 8 8 7 7 7 7 7 7 6 6 6 6 6 6 6 6 5 5 5 5 5 4 5 5 5 5 6 6 6 6 6 6 7 8 9 10 11 12 12 13 13 14 14 14 15 15 14 14 14 14 14 14 14 14 14 13 13 12 12 11 11 10 10 10 9
15 15 15 14 14 13 13 13 12 12 12 12 11 11 10 10 10 10 10 9 8 7 7 7 7 7 7 6 6 6 6 6 6 6 6 5 5 5 5 4 4 4 4 4 5 5 5 5 5 5 5 5 6 6 7 8 9 10 11 12 13 14 14 15 15 15 15 15 14 14 14 14 14 14 14 14 13 12 11 11 11 10 10 9 9
16 15 14 14 14 13 13 13 12 12 12 12 11 11 11 10 10 10 9 8 7 7 7 6 6 6 6 6 6 6 6 6 6 5 5 5 5 4 4 4 4 4 4 4 4 4 4 5 5 5 5 5 5 6 6 7 8 8 9 10 12 13 15 15 15 15 16 15 15 15 15 14 14 14 14 14 13 12 11 11 10 10 10 9 8
16 15 15 14 14 13 13 12 12 12 12 12 11 11 10 10 9 9 8 7 7 6 6 6 6 6 6 6 6 5 5 5 5 5 5 4 4 4 4 4 4 4 4 4 4 4 4 4 5 5 5 5 5 5 6 6 7 7 8 9 10 12 14 15 15 15 15 15 15 15 15 15 15 14 14 14 13 12 11 11 11 10 10 9 8
15 15 14 14 13 13 13 12 12 12 11 11 11 10 10 9 9 9 8 7 6 6 6 5 5 5 5 5 5 5 5 5 5 4 4 4 4 4 4 3 3 3 3 3 4 4 4 4 4 4 5 5 5 5 5 6 6 7 7 9 10 11 13 14 14 14 15 14 14 14 14 14 14 14 14 14 13 12 12 12 11 10 10 10 9
15 14 14 13 13 13 12 12 12 11 11 11 10 10 9 9 9 8 7 6 6 5 5 5 5 5 5 4 4 4 4 4 4 4 4 4 3 3 3 3 3 3 3 3 3 4 4 4 4 4 4 5 5 5 5 5 6 6 6 7 8 10 12 13 14 14 14 14 13 13 14 14 14 14 13 13 12 12 12 12 11 11 11 10 9
14 13 13 13 13 12 12 12 11 11 10 10 10 9 9 9 8 7 6 6 5 5 5 5 4 4 4 4 4 4 4 4 4 3 3 3 3 3 2 3 3 3 3 3 3 3 3 4 4 4 4 5 5 5 5 5 5 5 5 5 6 8 9 10 12 13 13 13 12 13 13 13 13 13 13 12 11 11 11 11 11 11 11 10 9
13 13 13 13 12 12 12 11 11 10 10 10 9 9 9 9 8 7 6 6 5 5 5 4 4 4 4 4 3 3 3 3 3 3 2 2 2 2 2 2 2 2 3 3 3 3 3 3 3 4 4 5 5 5 5 5 5 5 5 6 6 7 7 8 11 12 12 11 12 12 12 12 12 11 11 10 10 10 10 11 11 11 10 10 10
13 13 13 12 12 12 11 11 11 10 10 10 10 9 9 9 8 7 6 6 5 5 4 4 4 3 3 3 3 3 2 2 2 2 2 2 1 1 2 2 2 2 2 2 2 2 3 3 3 3 4 4 5 5 5 5 5 5 5 6 6 6 6 7 10 11 10 10 10 10 10 10 10 10 9 9 9 9 10 10 10 10 10 10 10
13 13 12 12 12 12 12 11 11 11 10 10 10 9 9 9 8 7 6 5 5 5 4 4 3 3 3 3 2 2 2 1 1 1 1 1 1 1 1 1 1 1 1 1 2 2 2 2 3 3 4 4 5 5 5 6 6 6 6 6 7 7 6 8 9 10 9 9 9 8 8 8 9 9 9 9 9 9 9 9 9 9 9 9 9
12 12 12 12 12 12 12 12 11 11 10 10 10 10 9 9 8 7 6 5 5 5 4 4 3 2 2 2 1 1 1 1 0 0 0 0 0 0 0 0 0 0 0 0 1 1 2 2 2 3 3 4 5 5 6 6 6 6 6 7 7 7 7 8 9 9 8 8 8 8 8 8 8 8 8 8 8 8 8 8 8 8 8 8 8
12 12 12 12 12 12 12 11 11 11 10 10 10 10 10 9 8 7 6 5 5 4 4 3 2 2 1 1 1 0 0 -0 -0 -0 -0 -0 -0 -0 -0 -1 -1 -1 -1 -0 0 1 1 1 2 2 3 4 5 5 5 6 6 6 7 7 7 7 8 8 9 8 8 8 7 7 7 7 7 7 7 7 7 7 8 8 7 7 7 8 7
12 12 12 12 12 12 12 11 11 11 11 10 10 10 10 9 8 7 6 5 4 4 3 2 2 1 0 0 -0 -0 -1 -1 -1 -1 -1 -1 -1 -1 -1 -1 -1 -1 -1 -0 0 1 1 2 2 2 2 3 5 5 5 5 6 6 7 7 7 7 8 9 9 9 8 7 7 6 6 6 6 6 6 6 6 6 7 7 6 6 6 7 6
12 12 12 12 12 12 11 11 11 11 11 10 10 10 9 9 8 7 6 5 4 3 3 2 1 0 -0 -0 -1 -1 -1 -1 -1 -1 -1 -1 -2 -2 -1 -1 -1 -1 -0 0 1 1 2 2 2 2 2 3 4 4 4 5 5 6 6 7 7 7 9 9 9 8 8 7 6 5 5 5 5 5 5 5 5 5 5 6 5 5 5 5 4
12 12 12 12 11 11 11 11 11 11 11 10 10 10 9 9 8 7 6 4 4 3 2 2 1 0 -0 -1 -1 -1 -1 -1 -2 -2 -2 -2 -2 -1 -1 -1 -1 -0 0 1 1 2 2 2 2 2 2 3 3 4 4 5 5 6 6 7 7 8 8 8 8 7 6 6 5 4 4 4 4 4 4 4 3 3 4 5 5 4 4 4 3
12 12 12 12 11 11 11 11 11 11 11 10 10 9 9 8 7 7 6 4 4 4 3 2 1 0 -0 -1 -1 -1 -2 -2 -2 -2 -1 -1 -1 -1 -1 -0 0 1 2 2 2 2 2 2 2 3 3 3 3 4 4 4 5 5 6 7 7 8 8 7 7 6 5 5 4 4 4 3 3 3 3 2 2 2 3 4 4 4 3 3 2
12 13 13 12 11 11 11 12 11 11 11 10 9 9 9 8 7 6 5 4 4 5 4 2 1 0 -0 -1 -1 -1 -2 -2 -2 -1 -1 -1 -1 -1 -0 -0 1 1 2 3 3 2 2 2 3 3 3 3 4 4 4 4 5 5 6 6 7 7 7 6 6 5 4 4 4 3 3 3 2 2 2 2 2 2 2 3 3 3 3 3 2
13 13 12 12 11 11 12 12 11 11 10 10 9 9 9 8 7 6 6 5 5 5 4 2 1 0 -0 -1 -1 -1 -2 -1 -1 -1 -1 -1 -1 -1 -0 -0 1 1 2 3 3 3 3 3 3 3 3 3 4 4 4 4 4 5 5 5 5 5 6 6 5 5 4 3 3 3 2 2 2 2 2 2 2 2 2 2 2 2 2 3 3
12 12 12 11 11 12 12 12 11 11 10 9 9 9 8 8 8 7 6 6 6 5 4 2 1 0 -0 -0 -1 -1 -1 -1 -1 -1 -1 -1 -1 -1 -0 -0 0 1 2 3 3 3 3 3 3 3 3 3 3 4 4 4 4 4 5 4 4 4 4 4 5 4 4 3 3 3 2 2 2 2 2 2 2 2 2 2 2 3 3 3 3
12 11 11 11 11 12 12 11 11 11 10 9 9 9 9 8 7 7 7 6 5 4 3 2 1 0 -0 -1 -1 -1 -1 -1 -1 -1 -1 -1 -1 -1 -0 0 0 1 1 2 2 3 3 3 3 3 3 3 3 3 3 4 4 4 4 4 4 3 3 3 3 3 3 3 3 2 2 2 2 2 2 2 2 2 2 2 3 3 3 3 4
11 11 11 11 11 11 11 11 11 10 10 9 9 9 9 8 7 7 7 6 4 3 3 2 1 0 0 -1 -1 -1 -1 -1 -1 -1 -1 -1 -1 -1 -0 -0 -0 0 0 1 1 2 2 3 3 3 3 3 3 3 3 3 3 3 3 2 2 2 2 2 2 2 2 2 2 2 2 2 2 2 2 2 2 2 3 3 4 4 4 4 5
12 12 11 11 11 11 10 10 10 10 10 10 9 9 9 8 7 7 7 6 5 3 3 2 1 1 0 -0 -1 -1 -1 -1 -1 -1 -1 -1 -1 -1 -1 -1 -1 -1 -1 -0 0 1 1 2 2 2 2 2 2 2 2 2 2 2 2 2 1 2 2 2 2 2 2 2 2 2 2 2 2 2 3 3 3 3 3 4 4 4 5 5 5
12 12 12 11 10 10 10 10 10 10 10 10 10 9 8 8 7 7 7 6 5 4 3 2 1 1 -0 -0 -1 -1 -1 -1 -1 -1 -1 -1 -2 -2 -2 -2 -2 -1 -1 -1 -1 -0 -0 0 1 1 1 2 2 2 2 2 2 1 1 1 1 1 1 2 2 2 2 2 1 2 2 2 2 3 3 3 3 3 3 4 4 4 5 5 5
12 12 11 11 10 10 10 10 10 9 9 10 10 9 8 7 7 7 7 6 5 4 3 3 2 1 -0 -1 -1 -1 -1 -1 -1 -1 -1 -2 -2 -2 -2 -2 -2 -2 -2 -1 -1 -1 -1 -1 -0 -0 0 1 1 1 1 1 1 1 1 1 1 1 1 1 1 1 1 1 2 2 2 3 3 3 4 3 3 3 3 4 4 4 5 5 5
11 11 10 10 10 10 9 9 9 9 9 9 9 9 8 8 8 8 7 6 6 5 4 3 2 1 0 -0 -1 -1 -1 -1 -1 -1 -2 -2 -2 -2 -2 -2 -2 -2 -2 -2 -2 -2 -1 -1 -1 -1 -0 -0 -0 0 0 0 0 1 1 1 1 1 1 1 1 1 1 2 2 2 3 3 3 4 4 4 3 4 4 4 5 5 5 5 4
10 10 10 10 10 9 9 9 9 9 9 9 9 8 8 8 8 8 7 7 6 6 5 4 3 2 1 1 -0 -1 -1 -1 -1 -1 -2 -2 -2 -2 -2 -2 -2 -2 -2 -2 -2 -2 -2 -2 -2 -1 -1 -1 -1 -1 -0 -0 0 0 1 1 1 1 1 1 1 2 2 2 2 3 3 3 3 4 3 4 4 4 4 5 5 5 5 4 4
10 10 10 10 9 9 9 9 8 8 9 9 9 9 8 8 8 8 7 7 6 6 5 5 4 3 2 2 1 -0 -1 -1 -1 -2 -2 -2 -2 -2 -3 -3 -3 -3 -3 -2 -2 -2 -2 -2 -2 -2 -2 -2 -1 -1 -1 -1 -1 -0 -0 0 0 1 1 1 2 2 2 2 2 3 3 3 3 3 3 3 4 4 4 4 4 4 4 4 4
10 10 10 10 10 9 9 8 8 8 9 9 9 9 9 8 8 8 8 7 7 6 6 5 4 4 3 2 1 0 -1 -1 -1 -2 -2 -2 -2 -2 -3 -3 -3 -3 -3 -3 -3 -3 -2 -2 -2 -2 -2 -2 -2 -2 -1 -1 -1 -1 -1 -1 -0 -0 0 1 1 1 2 2 2 2 2 2 3 3 3 3 3 4 4 4 4 4 4 3 3
9 10 10 10 9 9 9 8 8 8 8 9 9 9 9 9 9 8 8 8 7 7 6 5 5 4 4 3 2 1 0 -1 -1 -1 -2 -2 -2 -2 -3 -3 -3 -3 -3 -3 -3 -3 -3 -3 -3 -3 -2 -2 -2 -2 -2 -2 -1 -1 -1 -1 -1 -1 -0 0 0 1 1 1 1 2 2 2 2 2 2 3 3 3 3 3 3 3 3 3 3
10 10 10 9 9 9 8 8 8 8 9 9 10 10 10 10 9 9 9 8 8 7 6 6 5 5 4 3 3 2 1 -0 -1 -1 -1 -2 -2 -2 -2 -3 -3 -3 -3 -3 -3 -3 -3 -3 -3 -3 -3 -3 -2 -2 -2 -2 -2 -2 -2 -1 -1 -1 -1 -0 -0 0 1 1 1 1 1 1 2 2 2 2 2 2 3 3 3 3 3 3 4
10 10 10 10 9 9 9 9 9 9 9 10 10 10 10 10 10 9 9 9 8 7 7 6 5 5 4 4 3 3 2 1 -0 -1 -1 -2 -2 -2 -2 -2 -3 -3 -3 -3 -3 -3 -3 -3 -3 -3 -3 -3 -3 -3 -2 -2 -2 -2 -2 -2 -2 -2 -1 -1 -1 -0 0 1 1 1 1 1 1 1 2 2 2 2 3 3 3 3 3 3 4
10 10 10 10 10 10 9 9 9 10 10 10 10 10 10 10 10 10 9 9 9 8 7 6 6 5 5 4 4 3 2 1 1 -0 -1 -1 -1 -2 -2 -2 -3 -3 -3 -3 -3 -3 -3 -3 -3 -3 -3 -3 -3 -3 -3 -3 -2 -2 -2 -2 -2 -2 -2 -1 -1 -1 -0 -0 -0 0 0 0 1 1 1 2 2 2 2 2 3 3 3 3 3
9 9 9 9 10 10 10 10 10 10 10 10 10 10 9 9 10 10 9 9 9 9 8 7 6 6 5 5 4 4 3 2 2 1 -0 -1 -1 -1 -2 -2 -2 -3 -3 -3 -3 -3 -3 -3 -3 -3 -3 -3 -3 -3 -3 -3 -3 -3 -3 -2 -2 -2 -2 -2 -1 -1 -1 -1 -1 -0 -0 -0 -0 0 1 1 1 2 2 2 2 3 3 3 3
9 9 8 8 8 8 9 9 9 9 8 9 9 9 8 8 8 8 8 8 9 9 8 8 7 7 6 5 5 4 4 3 3 2 1 0 -0 -0 -1 -2 -2 -2 -3 -3 -3 -3 -3 -3 -3 -3 -3 -3 -3 -3 -3 -3 -3 -3 -3 -3 -3 -2 -2 -2 -2 -1 -1 -1 -1 -1 -1 -1 -1 -0 0 1 1 1 2 2 2 3 3 3 3
8 8 8 8 7 7 7 8 8 7 7 7 7 6 6 6 6 6 6 7 7 8 8 8 8 7 7 6 6 5 5 4 3 3 2 1 1 0 -0 -1 -1 -2 -2 -2 -3 -3 -3 -3 -3 -3 -3 -3 -3 -2 -2 -2 -2 -2 -3 -3 -2 -2 -2 -2 -2 -2 -1 -1 -1 -1 -1 -1 -1 -0 0 1 1 1 2 2 2 2 3 3 3
7 7 7 7 7 6 6 6 6 6 6 5 5 5 4 4 4 4 4 4 5 6 7 7 7 7 7 7 6 6 5 4 4 3 3 2 2 1 1 0 -0 -1 -1 -2 -2 -2 -2 -2 -2 -2 -2 -2 -2 -2 -2 -2 -2 -2 -2 -2 -2 -2 -2 -2 -2 -2 -2 -1 -1 -1 -1 -1 -1 -0 0 1 1 1 2 2 2 2 2 3 3
6 6 6 6 6 5 5 5 5 5 5 4 4 4 3 3 3 2 2 2 3 4 4 5 6 6 6 6 6 5 5 4 4 4 3 3 3 2 2 1 1 -0 -1 -1 -1 -2 -2 -2 -2 -2 -2 -2 -2 -2 -2 -2 -2 -2 -2 -2 -2 -2 -2 -2 -2 -2 -2 -2 -2 -1 -1 -1 -0 0 1 1 1 1 1 2 2 2 2 2 2
Height
775 777 779 781 783 785 787 788 790 791 792 793 793 794 795 795 796 796 796 796 796 796 796 795 795 795 795 795 795 795 795 795 794 794 794 793 793 792 791 791 790 788 787 786 785 784 783 782 781 781 781 780 780 781 782 783 784 784 785 786 787 788 790 791 791 790 789 791 793 794 796 800 800 795 795 798 800 801 804 807 810 811 812 815 819
773 775 776 779 781 783 785 786 788 789 790 791 792 793 794 794 795 795 795 795 795 795 795 794 794 793 793 793 793 793 793 793 793 792 792 792 791 791 790 789 788 787 786 784 783 782 781 780 779 779 779 778 777 777 778 779 780 781 781 782 783 784 785 786 788 788 787 789 792 793 792 796 799 797 795 796 797 799 803 806 809 810 810 812 816
770 773 774 777 779 781 783 785 786 788 789 790 791 792 792 793 793 793 793 794 794 793 793 793 793 792 791 791 791 791 791 791 791 790 790 790 789 789 788 787 787 785 784 783 782 781 780 778 777 777 776 776 774 774 774 775 776 777 778 778 779 780 781 782 783 784 785 786 788 789 789 791 795 796 795 794 795 798 801 804 807 808 809 811 814
769 771 773 775 777 779 781 783 785 786 787 789 790 790 791 791 792 792 792 792 792 792 792 791 791 790 790 789 789 789 789 788 789 788 788 788 787 786 786 785 784 783 782 782 781 780 778 776 775 775 774 773 772 772 771 771 772 773 774 774 775 776 777 777 778 779 781 782 783 784 785 787 791 794 794 793 794 796 799 803 805 807 808 810 813
767 769 771 773 775 777 779 781 783 784 786 787 788 789 790 790 790 791 791 791 790 790 790 789 789 788 788 787 787 787 787 786 786 786 786 785 785 784 783 783 782 781 780 779 779 778 776 775 773 773 772 770 770 769 769 769 768 769 770 770 772 773 774 773 774 775 777 777 778 781 782 784 788 792 791 790 792 796 800 803 804 805 807 809 811
764 766 768 771 773 775 777 779 781 782 784 785 786 787 788 789 789 789 789 789 789 788 788 788 787 786 786 785 785 784 784 784 784 783 783 783 782 781 781 780 779 779 778 777 776 775 774 773 771 770 769 768 767 767 767 766 766 765 765 766 768 770 770 769 770 771 772 773 775 777 779 780 784 788 789 788 788 791 797 802 805 805 805 807 809
761 764 766 768 771 773 775 777 779 780 782 783 785 786 787 787 788 788 788 787 787 787 786 785 785 784 783 783 783 782 782 782 782 781 781 780 779 779 778 777 777 776 775 774 773 772 771 770 769 768 767 765 765 765 765 764 763 763 763 763 763 765 766 766 766 767 768 769 771 773 774 777 781 784 786 786 787 789 792 797 802 804 805 805 807
759 762 764 766 769 771 773 775 777 779 780 782 783 784 785 786 786 786 786 785 785 785 784 783 782 782 781 781 781 780 780 779 779 779 778 778 777 776 775 775 774 773 772 771 770 769 768 767 766 765 764 763 762 762 762 762 761 760 760 761 760 761 761 762 763 764 765 765 767 768 770 773 777 781 785 785 785 787 789 791 794 797 801 803 805
757 760 762 764 767 769 771 774 775 777 779 780 781 782 783 784 784 784 783 783 783 782 782 781 780 780 779 779 778 778 777 777 776 776 776 776 775 774 773 772 771 770 769 768 767 766 765 764 762 761 760 759 759 759 758 758 758 757 757 758 758 758 758 758 759 761 762 763 763 764 767 769 771 775 779 780 779 781 785 789 790 792 796 800 803
755 758 760 762 765 768 770 772 774 775 777 778 779 780 781 781 781 781 781 780 780 780 779 779 778 778 778 777 776 775 775 774 774 774 774 773 773 772 771 769 769 768 766 765 764 762 761 760 759 758 757 756 755 755 754 754 753 753 753 754 755 756 756 756 756 756 757 758 758 760 761 763 765 767 771 775 776 778 781 785 788 792 795 799 802
754 756 759 761 764 766 769 771 772 774 775 776 777 778 778 779 778 778 778 778 778 777 777 777 776 776 776 775 774 773 772 772 771 771 771 771 770 769 768 767 766 765 764 762 761 759 758 757 755 754 753 752 751 751 750 749 748 748 748 749 750 752 752 753 754 754 754 753 754 755 755 755 758 762 766 771 774 775 776 780 784 787 790 793 796
753 756 757 760 763 765 767 769 770 772 773 774 775 776 776 776 776 776 775 775 775 774 774 774 774 774 774 773 772 771 770 769 769 769 768 768 768 766 765 763 762 761 760 759 758 757 756 754 752 751 749 748 748 747 746 745 744 744 744 744 745 746 747 748 750 751 752 750 750 750 750 752 755 758 762 765 769 772 774 777 779 780 782 784 787
753 755 757 759 761 764 766 767 769 770 771 772 773 773 774 773 773 773 773 773 772 771 771 772 772 772 771 770 769 768 767 767 766 766 765 765 764 763 761 760 758 756 756 755 754 753 753 751 749 747 746 745 744 743 742 741 740 740 740 739 739 739 740 742 744 746 748 749 747 745 746 749 752 753 755 758 763 767 771 774 775 776 777 778 779
752 754 756 758 760 763 765 766 768 769 770 771 771 771 771 771 771 771 771 770 770 769 769 769 769 769 768 767 766 765 764 764 763 763 762 762 761 760 758 756 754 752 751 751 749 749 748 748 745 743 743 742 741 739 739 738 738 736 735 735 733 733 734 735 737 739 742 744 744 743 743 744 745 748 752 755 756 758 760 763 766 769 772 774 777
751 753 755 758 760 762 764 765 767 768 768 769 769 769 770 769 769 769 768 768 767 767 767 767 767 767 766 765 763 761 761 761 760 760 759 758 758 756 754 752 750 748 747 746 745 744 743 743 741 739 739 738 737 737 736 735 735 733 732 730 729 728 729 729 730 732 734 736 738 739 741 741 742 744 748 750 750 750 751 754 757 763 769 775 778
750 752 754 757 760 762 764 765 765 766 767 767 767 768 768 767 767 767 766 766 765 765 765 765 765 764 763 762 761 759 758 758 757 756 755 754 753 752 750 748 746 743 741 741 740 739 738 738 736 735 734 733 733 734 734 733 732 730 728 727 725 724 723 723 724 726 727 729 732 735 737 738 739 741 743 744 746 750 754 758 760 764 769 774 776
748 751 753 756 759 761 763 764 764 765 765 765 766 766 766 766 766 765 764 764 764 764 764 763 763 762 761 760 758 756 755 754 754 753 752 751 750 747 746 744 741 738 736 735 735 733 732 732 731 730 728 727 728 731 731 731 729 726 724 724 723 721 718 718 720 720 721 723 726 729 733 735 737 740 741 742 745 749 754 758 759 760 763 767 770
747 750 752 754 757 760 762 763 763 763 764 764 764 764 764 764 764 764 763 763 763 763 762 761 761 760 759 758 756 754 752 751 751 750 748 748 746 744 741 739 736 733 731 730 729 727 726 725 725 725 723 722 725 727 727 728 727 723 722 722 720 717 715 715 715 716 717 719 721 724 727 729 732 735 738 741 743 746 748 749 751 754 757 760 763
746 748 750 753 756 759 761 762 762 762 763 763 763 763 763 763 763 763 762 762 762 762 761 760 759 758 757 756 754 752 750 748 748 747 745 744 743 740 737 734 730 728 726 724 722 721 720 719 719 718 717 718 720 721 722 724 723 719 719 719 716 714 713 712 711 712 713 714 717 719 722 724 726 729 732 736 738 741 742 743 745 748 751 754 758
744 746 749 752 757 759 760 761 761 761 761 761 762 762 762 762 762 761 761 761 761 760 760 759 758 756 755 754 752 750 748 745 744 743 741 740 739 736 733 729 725 722 721 719 716 714 713 712 711 712 712 713 714 715 717 718 717 716 716 715 712 711 712 711 708 708 709 710 712 714 717 720 723 724 727 731 734 737 740 742 743 744 745 749 753
744 747 750 753 757 758 759 759 760 760 760 760 760 761 761 761 760 759 760 760 759 759 759 758 756 754 753 751 749 748 745 743 741 739 737 735 734 732 728 724 721 717 714 712 710 708 707 706 705 705 706 707 707 708 709 711 711 712 710 708 707 709 711 711 708 705 706 707 709 710 712 715 718 721 724 728 731 735 738 740 741 743 744 746 749
745 749 752 754 756 757 758 758 758 758 759 759 759 759 759 759 758 757 758 758 758 758 757 756 754 752 750 749 746 744 743 740 737 735 732 730 728 726 723 719 716 713 709 706 704 702 701 700 699 700 701 701 701 701 702 703 704 705 702 701 703 706 709 711 708 704 703 704 706 707 709 711 714 717 721 725 729 732 735 737 740 743 744 745 746
747 750 752 754 756 756 757 757 757 757 757 757 758 757 757 757 756 756 756 756 755 756 755 754 752 750 747 745 743 741 739 736 733 730 728 725 722 720 717 713 711 709 705 701 698 696 694 693 693 694 694 694 695 695 695 696 696 696 696 697 700 703 706 709 707 703 701 701 702 704 706 708 710 713 717 721 725 730 733 736 740 742 744 745 747
748 751 752 754 755 755 755 755 756 756 756 756 756 756 755 755 754 754 754 754 753 753 752 750 749 747 744 741 739 737 735 732 728 725 722 719 716 713 710 707 705 703 699 695 692 689 687 686 686 688 688 688 688 689 689 689 689 689 691 693 696 699 702 705 704 700 699 699 700 701 704 706 708 710 714 718 722 727 731 736 739 742 743 745 747
749 751 752 753 754 754 754 755 755 755 755 755 754 753 753 752 752 753 753 752 752 751 750 748 746 744 742 738 735 733 730 727 724 720 717 714 710 707 704 701 698 696 692 688 684 682 680 680 680 681 682 682 682 683 683 683 683 684 686 688 691 694 696 699 700 698 696 696 698 699 702 705 708 710 712 716 721 725 729 734 738 741 743 745 748
749 750 751 752 753 753 753 754 754 754 754 753 752 752 751 751 751 751 751 751 751 750 748 747 744 742 739 736 732 729 726 723 719 715 711 708 704 701 698 694 690 687 683 679 676 673 673 673 673 674 675 676 676 677 677 677 678 679 681 683 686 688 690 693 695 694 693 694 695 698 701 704 708 711 713 716 720 724 727 731 734 738 741 744 749
748 749 750 751 752 752 753 753 753 753 753 752 751 751 750 750 749 750 750 750 749 748 747 745 742 739 736 733 730 727 723 719 715 711 707 703 699 695 692 687 682 678 674 670 667 666 665 664 664 666 668 670 671 672 672 673 673 674 675 677 680 682 684 687 689 690 690 691 693 696 700 704 707 711 714 716 720 723 726 728 732 736 740 744 749
747 748 749 750 751 752 752 752 752 752 751 751 750 749 749 749 749 748 748 749 748 747 745 742 740 738 735 731 728 724 719 716 712 708 704 699 694 690 686 681 676 671 666 663 661 660 658 657 657 660 663 665 667 668 668 668 668 668 668 670 674 677 680 683 686 688 688 689 691 695 699 703 707 711 714 716 719 723 726 728 731 736 741 745 748
747 748 748 750 751 752 751 750 750 750 750 749 749 749 748 748 748 747 747 748 747 746 744 741 738 736 733 730 726 721 716 712 708 705 701 696 691 686 681 676 671 665 660 657 656 654 652 651 652 655 658 661 662 664 664 665 664 662 662 664 669 673 676 679 683 686 687 688 690 693 697 702 707 711 714 717 720 724 726 729 732 736 741 745 746
746 747 747 749 751 751 750 749 748 748 749 748 749 749 747 747 746 746 747 746 746 744 742 740 738 735 732 728 724 720 715 709 704 700 696 691 686 681 676 672 666 660 654 651 650 649 648 648 649 651 654 657 659 660 661 661 660 659 658 661 664 668 672 676 680 683 686 687 688 692 696 701 706 711 715 717 721 725 728 731 733 736 740 743 746
744 744 746 748 749 749 748 747 747 747 747 748 749 748 747 746 745 745 746 745 744 742 740 739 736 733 730 726 721 717 713 707 702 697 692 686 681 677 672 668 663 657 651 647 645 645 645 645 647 649 651 654 655 656 657 657 657 657 657 659 662 665 669 673 677 681 683 686 688 692 695 700 705 711 714 717 720 725 729 732 734 737 739 742 745
743 744 746 747 747 747 746 746 746 746 747 748 749 748 747 746 745 745 744 743 742 740 739 737 734 731 728 724 719 714 709 705 700 695 690 684 679 674 670 666 661 656 651 647 645 644 644 645 646 647 649 651 652 653 654 655 655 655 656 659 662 664 666 670 674 678 681 684 688 692 696 700 706 711 715 718 721 724 728 732 735 738 740 743 746
744 745 747 747 747 746 745 745 745 745 746 748 749 748 747 746 745 744 744 742 740 739 738 736 733 729 726 722 718 713 708 703 699 694 688 683 677 672 668 664 660 656 652 649 647 645 645 646 647 648 649 650 651 652 653 653 653 654 656 658 661 664 667 669 673 676 680 683 687 691 695 701 707 712 716 719 721 724 728 732 736 739 741 744 747
745 746 747 746 746 745 745 745 745 745 746 747 747 746 745 744 744 743 742 741 739 738 736 734 732 728 724 720 716 711 707 702 697 693 687 682 676 671 667 664 660 656 653 651 649 647 646 647 648 649 650 651 651 652 653 653 653 655 657 659 661 664 668 671 674 676 679 684 688 691 696 701 706 711 716 720 723 726 729 732 736 740 743 745 748
745 745 745 745 745 745 745 746 746 745 746 746 745 744 744 743 743 743 741 739 738 737 735 733 730 726 723 719 715 710 706 701 697 692 687 682 677 672 667 664 661 657 654 653 651 650 649 649 649 650 652 653 653 654 655 654 655 656 658 660 662 665 669 673 676 678 680 684 689 692 697 702 707 711 715 719 722 726 729 731 736 741 745 746 747
744 744 743 744 745 746 746 746 746 746 745 744 744 744 743 743 743 742 740 739 738 736 735 732 729 726 723 719 715 710 705 701 697 693 688 684 679 674 669 666 663 660 657 655 653 652 651 651 651 651 653 654 655 657 657 657 658 659 660 661 663 666 668 672 676 680 683 686 690 695 699 704 708 712 716 719 722 725 728 730 735 741 746 747 744
743 743 742 744 745 745 746 746 746 746 745 744 744 743 743 743 743 741 740 738 737 735 734 732 729 725 722 718 714 710 705 702 698 694 689 685 681 676 673 670 666 664 661 659 657 655 654 653 653 653 654 655 657 658 659 660 661 662 664 665 666 669 670 672 676 681 684 688 693 697 702 706 710 713 717 720 723 727 729 732 737 743 748 746 742
741 741 742 743 744 745 746 746 746 745 745 744 743 743 743 743 742 740 739 738 736 735 733 731 729 726 722 719 715 710 706 702 698 694 690 686 682 679 676 672 669 667 665 663 661 659 658 657 656 656 656 658 659 660 661 663 665 666 667 669 670 673 675 676 679 683 686 690 695 700 704 708 712 715 718 721 725 728 731 735 740 745 746 744 741
741 742 743 744 744 745 746 746 745 745 744 743 743 743 742 742 741 739 738 737 736 734 733 731 729 727 724 720 716 711 706 702 699 695 692 689 685 682 679 676 673 671 669 667 665 664 662 661 660 659 659 660 661 663 664 666 668 670 672 673 674 676 679 680 683 686 690 693 698 702 706 710 714 717 720 723 726 729 733 738 743 744 743 742 742
742 743 743 744 745 746 746 746 746 745 744 743 743 742 742 741 740 738 737 736 735 734 732 731 729 727 725 722 718 713 709 705 702 699 696 692 689 686 683 680 677 675 673 672 670 669 667 666 664 664 663 664 665 666 668 669 671 673 675 677 679 681 683 684 687 690 693 697 700 704 708 711 715 719 723 726 728 730 734 739 743 742 741 742 745
742 743 743 744 745 745 745 745 746 745 744 743 742 742 741 740 739 738 737 735 734 733 732 730 729 727 725 723 720 716 712 709 705 702 699 696 694 691 687 685 682 680 678 676 675 673 672 670 669 669 668 668 669 670 672 674 675 677 679 681 683 685 687 689 691 693 696 699 703 706 710 713 716 721 725 728 730 733 737 741 743 743 742 745 749
743 743 744 744 745 745 745 745 746 745 744 743 741 741 740 739 738 737 736 734 733 732 731 730 729 727 725 724 722 718 715 712 709 706 703 700 698 695 692 689 687 685 683 681 680 678 677 675 674 674 674 674 675 675 676 678 680 681 684 686 688 690 692 694 696 697 700 703 706 709 713 716 720 724 727 730 732 736 740 743 745 745 746 749 752
744 744 744 744 744 744 745 745 745 745 743 741 740 740 739 737 736 735 734 733 732 731 730 729 729 727 725 724 723 720 717 714 711 709 706 704 701 699 696 694 691 689 688 686 684 683 681 680 679 679 679 679 680 681 682 683 685 686 688 690 693 695 697 699 700 702 704 707 710 713 717 721 725 727 730 733 737 740 743 746 747 749 750 753 755
744 744 744 744 744 744 745 744 744 743 742 741 740 739 738 737 736 735 733 732 731 730 729 729 728 727 726 725 723 722 720 717 715 712 710 707 705 703 701 699 697 694 693 691 690 688 686 685 685 685 685 685 685 686 687 689 690 691 693 695 697 699 701 703 705 707 708 710 712 716 721 726 728 730 734 738 742 744 746 749 750 752 753 755 757
744 744 744 744 744 744 744 744 743 742 741 741 740 739 738 737 736 735 733 732 731 730 729 729 728 727 726 725 724 722 721 720 718 715 713 711 709 707 705 703 701 699 697 696 695 693 692 691 691 690 690 691 692 692 694 695 695 697 698 699 701 703 706 707 709 711 713 714 716 720 724 729 732 735 739 743 746 748 750 751 753 754 755 757 759
745 744 744 744 743 743 743 743 743 742 741 741 741 740 739 737 736 735 733 732 731 730 729 729 728 727 726 726 725 723 722 721 720 718 716 714 712 711 709 707 706 704 703 701 700 699 698 697 697 696 696 697 698 698 700 701 702 702 703 705 706 708 710 712 714 716 718 720 722 725 729 732 735 739 743 746 749 751 753 754 755 756 757 759 761
746 746 746 745 744 744 744 743 743 742 742 741 741 740 740 738 737 736 735 733 732 731 730 729 729 728 727 727 726 725 724 723 721 720 719 718 716 714 713 711 710 709 707 706 705 704 703 703 703 702 702 703 703 704 706 707 708 708 709 710 712 714 716 718 720 722 725 727 729 731 734 737 740 744 747 750 753 754 756 757 758 758 759 761 763
749 749 748 748 747 746 745 744 744 743 743 742 742 741 741 740 739 738 737 735 734 733 732 731 730 729 728 728 727 726 725 724 723 722 722 720 719 718 716 715 714 713 712 711 710 710 709 709 709 708 709 709 709 710 712 713 714 715 716 717 718 720 722 724 726 728 731 733 735 737 740 742 745 748 752 754 757 758 759 759 760 761 762 763 765
751 751 751 750 750 749 748 747 746 746 745 744 744 744 743 742 741 740 739 738 737 736 735 734 733 732 731 730 729 728 727 726 725 725 724 723 722 721 720 718 717 717 716 715 715 715 714 714 714 714 714 714 715 716 717 718 719 720 722 723 725 726 728 730 731 733 735 737 740 742 745 747 750 753 756 759 760 761 761 762 762 763 764 765 767
754 754 753 753 752 752 751 750 749 748 748 747 747 746 746 745 744 743 742 741 740 739 738 737 736 735 733 732 732 730 729 728 727 727 727 726 725 724 723 722 721 720 720 720 719 719 719 719 719 719 719 720 721 722 723 724 725 726 727 729 730 732 733 735 736 738 740 742 745 748 750 753 755 758 760 762 762 762 763 763 764 765 765 767 769
757 756 756 755 755 754 753 752 752 751 751 750 749 749 748 748 747 746 745 744 743 742 741 740 739 738 737 735 734 733 732 731 730 729 729 729 728 727 726 726 725 724 724 724 724 724 724 724 724 724 725 725 726 727 728 729 730 731 732 734 735 736 738 739 741 743 745 748 750 753 755 757 760 761 763 764 764 764 765 765 766 766 768 769 772
Wind_Speed
23 23 22 21 20 20 19 18 17 15 15 14 13 12 11 11 11 11 11 12 12 12 13 13 14 14 15 15 15 16 16 16 17 17 17 18 19 20 20 20 20 20 21 22 22 23 24 24 24 24 24 24 26 27 28 30 30 30 29 28 31 30 30 26 15 14 26 25 17 16 15 14 15 21 27 26 26 27 25 26 28 31 35 36 37
24 23 23 22 21 20 20 18 17 16 15 14 13 12 11 12 12 12 13 13 13 14 14 15 15 16 16 16 16 17 17 17 17 17 18 19 20 20 20 20 21 21 22 22 22 22 24 25 25 25 25 25 26 27 28 29 29 31 30 28 29 30 30 30 23 16 21 26 19 15 15 17 17 19 25 28 28 27 25 24 28 33 36 38 39
24 23 23 22 21 20 19 18 17 16 15 14 13 12 12 12 12 13 13 14 14 15 15 16 16 16 17 17 18 18 18 18 19 19 19 20 20 21 21 21 22 22 22 23 23 23 24 26 27 25 25 25 25 26 28 29 29 29 31 30 29 30 31 32 29 22 20 24 24 19 15 19 22 23 27 30 29 28 26 25 30 35 37 39 40
23 22 22 21 21 20 19 18 17 16 15 14 13 12 12 12 12 13 14 14 15 15 16 16 16 17 18 19 19 19 19 20 20 20 20 21 22 22 22 23 23 23 24 24 23 24 24 26 28 28 26 25 24 24 25 28 29 28 30 30 29 30 32 32 32 29 23 22 25 23 18 21 26 27 29 31 28 28 28 27 31 34 36 38 38
23 22 22 21 21 20 19 17 16 15 14 13 12 12 12 12 12 12 13 14 15 16 16 16 17 17 19 20 20 21 21 21 21 21 22 22 23 24 24 23 24 24 25 25 25 25 25 26 28 29 30 29 26 24 23 24 27 29 30 30 29 30 31 30 31 31 28 24 22 21 19 23 27 26 29 33 28 25 25 27 29 30 32 35 37
24 22 22 21 21 20 18 17 15 14 14 13 12 12 11 11 12 12 13 14 14 15 16 17 18 18 19 20 21 22 23 23 23 23 24 24 24 25 25 25 26 26 26 26 26 26 26 26 27 28 30 32 30 27 26 25 25 26 29 30 30 31 30 29 30 30 31 29 24 20 20 24 25 23 28 35 33 29 27 25 24 26 29 33 35
24 22 22 21 20 19 18 17 15 14 13 12 11 11 10 10 11 11 12 13 14 15 17 17 18 19 20 21 21 22 22 23 24 24 25 25 26 27 27 26 26 26 27 27 27 27 27 27 27 27 28 31 32 31 29 28 26 24 25 28 30 30 29 28 28 28 29 28 25 23 24 26 25 23 28 34 32 31 32 28 24 24 27 32 35
23 22 22 21 20 19 17 16 15 13 12 11 10 10 10 10 10 10 11 12 14 16 17 18 19 20 20 21 22 23 23 23 24 24 25 25 25 26 27 27 27 27 28 28 28 28 28 28 29 29 29 30 31 33 33 31 28 26 25 25 26 29 31 30 26 24 24 25 24 23 25 27 26 24 26 29 27 26 32 34 32 31 32 31 33
23 21 21 20 19 17 16 15 13 12 11 10 10 10 9 9 9 10 12 13 14 16 17 18 19 20 21 22 22 23 23 24 24 24 25 26 26 26 26 26 26 27 28 28 29 30 30 29 30 31 32 32 32 33 36 35 33 31 29 27 24 24 27 28 27 26 25 24 23 23 23 24 26 27 27 29 29 29 33 35 33 33 33 30 30
22 21 19 18 17 15 14 13 12 11 11 10 10 9 9 9 11 12 13 14 14 16 17 17 18 20 21 22 23 24 24 24 24 25 27 28 29 29 28 28 28 27 27 28 28 29 30 31 31 32 33 35 36 37 38 39 40 41 40 37 33 28 24 22 24 26 26 24 22 23 23 22 28 33 32 32 32 33 35 34 29 28 29 25 23
21 20 18 17 16 15 13 13 12 11 11 11 10 9 10 10 12 12 13 14 15 16 16 17 18 20 21 22 24 24 25 25 25 26 28 29 31 31 31 31 31 31 31 30 29 29 30 30 31 32 33 34 36 37 38 40 43 45 47 47 43 39 34 27 23 24 25 25 23 24 24 23 29 34 34 33 33 34 38 36 31 31 30 24 19
19 18 17 17 16 15 14 12 12 11 11 10 10 10 10 10 11 13 14 15 16 16 16 17 19 20 22 24 24 25 26 25 26 28 29 30 31 32 33 33 33 33 33 32 32 31 30 31 31 31 32 32 32 34 35 37 39 42 46 50 51 49 46 40 33 28 26 24 24 27 26 23 28 33 35 35 35 36 37 35 33 35 33 28 25
17 17 16 16 15 14 13 12 11 10 10 10 10 10 10 11 12 13 14 16 16 15 15 18 21 22 23 24 25 26 26 26 27 28 30 31 31 32 33 33 33 33 33 33 34 34 33 32 32 32 32 31 32 33 33 34 35 37 40 45 50 53 53 50 46 40 34 28 25 28 30 28 31 36 39 40 39 37 35 34 34 35 34 33 32
16 16 15 14 14 13 12 10 10 9 9 10 11 11 11 12 13 14 15 15 14 14 16 18 21 23 23 24 25 27 27 27 29 30 31 32 33 34 35 35 34 34 34 34 34 36 36 35 34 34 32 32 32 32 31 31 32 34 35 38 43 50 53 53 52 49 44 37 32 31 32 33 35 39 41 43 44 43 42 41 40 38 36 34 32
16 16 14 12 11 11 10 9 9 9 9 10 11 11 12 13 13 14 14 13 13 15 17 19 21 23 24 25 26 27 27 28 29 31 31 32 33 34 36 37 37 36 35 35 35 36 37 37 37 37 35 34 34 33 32 30 30 30 31 33 36 41 45 48 49 50 48 44 40 37 34 35 37 40 43 46 48 49 50 49 46 42 35 28 24
15 15 14 11 9 8 8 8 8 9 10 11 11 12 13 13 13 13 13 13 14 16 17 19 21 23 24 25 26 27 27 27 28 29 30 31 32 34 35 36 37 38 37 37 36 37 37 38 39 39 37 36 36 36 36 35 35 34 32 31 32 35 40 42 44 46 47 45 44 40 35 33 34 37 43 49 49 46 43 38 35 34 29 22 20
15 15 13 11 8 7 7 7 8 9 10 11 12 12 11 11 12 12 13 13 14 15 17 19 22 24 25 25 26 27 28 27 28 29 31 33 34 35 35 34 35 37 38 37 37 37 38 39 39 38 38 38 36 36 37 38 39 40 37 33 31 32 35 37 38 41 43 44 44 43 39 34 33 33 39 47 49 43 36 30 30 34 29 20 17
13 12 11 9 8 7 7 8 8 9 10 10 10 10 10 10 11 13 13 12 13 15 17 20 23 24 25 26 26 28 29 28 29 30 31 33 34 35 36 35 35 36 36 37 37 37 37 39 39 39 39 37 35 35 36 38 40 40 37 33 32 32 32 32 32 34 38 40 42 43 42 39 37 36 38 43 47 45 40 37 38 38 31 22 19
12 11 11 9 6 6 7 8 8 8 8 8 8 9 10 10 12 12 11 11 13 16 18 21 23 24 25 27 27 29 29 28 28 30 31 33 34 36 37 36 35 35 34 35 36 36 36 37 38 40 41 40 38 37 37 38 40 41 36 30 29 30 31 29 29 30 33 35 36 39 40 38 38 39 39 42 48 50 48 44 43 41 34 28 26
9 9 10 8 5 6 7 8 7 6 7 7 8 9 10 11 11 10 10 10 13 17 19 22 24 25 26 27 27 27 28 28 28 30 33 34 36 37 37 35 35 35 34 34 34 34 35 35 36 38 40 41 42 43 42 42 44 44 40 34 30 27 25 24 27 30 31 33 35 37 39 38 36 36 37 42 47 50 47 42 43 44 39 32 31
13 11 8 5 5 6 6 5 4 5 6 7 9 9 10 10 9 7 9 11 14 17 20 22 24 26 26 27 27 27 27 29 30 32 34 36 37 38 38 36 35 35 34 34 34 34 34 34 35 35 37 38 40 42 45 47 48 48 49 46 42 35 27 25 26 30 29 31 33 33 35 38 36 35 38 42 45 46 44 41 43 44 40 36 36
13 7 4 4 5 5 4 4 4 4 6 8 9 9 10 10 7 5 8 12 15 17 20 22 23 25 26 27 27 27 28 30 32 34 35 36 37 38 39 38 36 35 34 33 34 34 34 35 36 35 36 38 39 40 42 45 47 50 53 52 50 46 37 30 27 28 28 29 31 31 32 34 34 34 37 39 41 42 41 40 41 40 38 39 39
9 5 4 4 5 5 4 4 4 4 7 8 8 10 11 9 7 7 9 11 13 15 18 21 23 25 26 27 27 28 28 30 32 33 35 37 38 38 39 40 39 37 36 35 35 36 36 36 36 36 37 38 40 40 40 43 46 49 51 50 50 48 40 32 28 27 28 28 29 29 30 32 33 34 36 36 38 38 35 34 37 36 35 35 35
7 5 6 5 5 3 3 3 3 5 7 8 9 12 11 8 7 8 8 10 13 15 18 20 21 23 25 27 28 28 28 29 31 33 35 37 38 38 38 39 39 39 39 39 39 38 37 37 37 37 38 39 40 40 41 43 45 48 47 46 46 44 36 30 28 27 26 26 27 27 27 29 31 34 36 36 36 35 32 31 31 31 30 30 29
5 5 5 5 3 1 1 2 4 6 7 8 11 11 9 7 8 8 7 10 13 15 17 19 20 22 24 25 26 28 28 28 30 33 35 37 37 37 37 38 39 40 41 42 42 41 39 39 40 39 39 39 39 40 42 44 45 46 45 44 42 38 32 30 29 27 26 25 26 26 26 27 29 31 34 35 34 33 32 31 29 26 25 23 22
6 4 3 3 2 1 2 3 5 7 7 8 11 10 9 8 8 8 8 10 13 14 17 19 20 21 23 23 24 26 28 28 30 32 34 35 36 36 37 39 41 41 41 42 42 42 42 43 44 42 40 40 40 39 39 41 42 43 44 44 40 34 31 31 31 27 26 26 26 26 27 27 28 30 32 33 33 33 33 33 29 26 25 25 24
8 5 3 3 3 1 2 2 4 6 8 9 11 12 11 9 9 9 8 9 12 14 17 20 20 20 21 22 24 26 27 28 30 31 32 34 36 38 40 41 41 40 38 37 37 38 40 42 44 44 42 41 40 38 36 35 36 38 40 40 38 34 32 34 35 32 30 29 28 27 28 29 30 31 32 33 33 32 33 34 32 29 29 31 30
7 6 5 4 4 4 4 2 3 7 10 11 12 12 11 10 10 8 7 8 11 13 18 21 21 20 22 23 26 28 28 28 29 31 34 37 39 40 41 40 39 38 36 34 33 34 35 36 37 38 38 37 35 34 35 35 35 37 36 35 34 34 34 35 34 31 31 32 31 31 31 31 31 31 32 32 32 31 32 33 33 33 33 33 31
5 6 7 6 5 5 5 4 6 9 10 11 12 13 12 11 10 7 6 7 10 15 21 23 22 22 24 25 27 29 29 31 33 34 37 39 39 39 38 37 37 38 36 34 33 32 29 26 26 28 30 30 28 27 29 30 31 31 32 31 31 32 33 32 28 26 30 34 35 34 34 33 31 31 31 31 30 31 32 34 36 35 34 32 29
9 8 7 5 6 5 5 6 9 10 11 12 13 14 12 9 7 6 5 6 13 23 27 25 23 23 25 27 29 29 31 34 36 36 36 37 36 35 34 32 32 32 30 29 29 27 21 19 20 22 22 23 23 23 24 25 23 22 26 30 32 33 31 30 30 32 33 35 37 37 36 34 32 31 32 31 30 30 32 35 37 36 35 33 29
11 7 6 4 4 2 4 8 10 11 11 12 13 15 13 7 4 6 6 6 14 27 32 27 22 23 26 29 31 32 32 34 34 33 34 34 33 32 30 27 26 25 22 20 20 19 18 17 16 18 19 20 21 22 22 21 20 20 22 25 30 33 33 33 34 35 35 35 35 36 36 35 34 33 32 32 32 32 32 33 33 33 33 34 31
3 8 8 4 1 1 5 10 11 11 12 12 12 14 15 11 8 7 6 6 15 26 32 28 25 25 28 29 31 33 33 33 32 31 31 31 31 29 26 23 22 21 16 10 9 10 13 13 14 16 18 18 18 20 20 20 21 23 23 22 24 28 33 36 37 37 36 36 35 34 34 34 33 32 32 32 33 32 31 30 30 31 32 31 30
9 9 6 5 4 5 7 10 11 10 10 11 11 13 12 11 12 11 8 9 16 23 28 28 26 26 29 29 30 33 33 31 30 31 30 29 29 26 22 18 17 15 12 8 3 3 4 5 8 11 15 17 18 19 20 22 23 24 26 26 25 26 29 34 37 38 36 36 36 36 34 34 34 32 30 31 32 32 30 29 29 30 29 28 28
7 5 4 4 3 5 9 11 12 10 9 9 12 14 11 9 12 14 11 9 13 18 24 28 28 28 29 30 32 33 31 29 30 30 29 29 27 22 17 15 14 12 12 12 12 9 7 5 4 3 6 10 14 17 18 21 22 23 24 26 27 28 28 30 32 34 34 35 35 34 35 35 35 33 31 30 29 29 29 29 28 27 27 27 28
4 2 2 2 3 8 13 14 13 13 10 9 11 14 11 10 14 15 13 9 9 14 20 26 30 30 28 29 33 34 30 28 29 29 27 27 25 21 19 18 18 17 16 15 13 12 10 9 7 5 3 4 7 10 13 16 19 22 23 25 28 31 31 29 28 30 33 33 32 33 35 35 34 34 33 32 30 29 28 28 28 27 27 27 28
2 4 1 2 5 10 15 14 13 14 15 13 10 11 13 14 15 15 13 10 9 11 16 23 29 31 29 29 33 33 29 27 28 27 27 26 25 23 21 18 17 18 19 18 14 12 10 9 7 7 6 6 6 7 10 13 16 19 23 26 29 31 32 31 30 30 31 31 31 32 33 33 33 33 32 30 30 30 28 29 29 27 26 27 28
2 4 4 8 9 10 12 12 13 16 19 14 9 11 15 16 14 14 12 11 9 10 13 19 26 29 28 30 33 33 28 26 27 26 26 26 24 22 21 19 17 18 19 19 18 16 14 11 10 9 9 9 10 11 12 14 16 18 22 24 26 27 29 32 33 33 32 32 32 32 32 32 33 33 30 29 29 29 29 29 29 27 27 28 29
4 5 5 6 8 9 9 10 12 17 19 14 8 11 14 14 14 12 11 12 11 9 11 17 22 24 25 29 33 33 28 26 27 27 26 26 25 23 21 20 20 19 19 19 18 18 18 16 15 14 13 13 14 15 16 17 18 20 21 23 24 26 27 30 32 32 32 32 33 32 32 31 31 30 30 30 30 30 30 31 30 29 28 29 29
10 9 7 7 7 6 7 10 13 18 20 15 11 14 14 14 13 10 10 12 12 10 9 14 18 20 23 28 32 32 28 25 26 26 25 25 25 24 21 21 20 20 19 19 18 18 18 18 18 19 19 18 18 19 20 21 21 21 21 23 25 26 27 29 30 30 31 31 31 31 31 30 29 29 30 30 31 32 32 30 29 28 27 28 28
8 7 7 8 6 4 7 10 12 17 20 13 13 15 15 13 12 12 9 10 11 10 9 11 15 18 22 27 30 31 29 25 25 25 25 24 24 23 22 21 20 20 20 19 18 18 19 19 20 21 21 21 21 21 22 22 23 23 23 23 25 25 26 28 29 30 31 30 30 30 29 29 29 30 30 30 31 33 32 29 27 28 30 30 30
7 6 7 7 5 5 8 10 12 16 17 10 9 11 12 11 13 13 10 8 9 9 9 11 14 17 20 24 28 29 28 25 25 25 25 23 22 22 22 22 21 20 20 20 19 19 20 20 21 22 23 22 23 24 24 24 24 24 24 25 25 25 26 27 28 29 30 30 30 29 29 30 32 32 31 31 31 31 29 27 27 30 32 32 32
8 7 6 7 7 6 7 8 10 14 14 9 7 9 8 7 10 12 10 7 6 6 7 10 13 15 17 20 24 27 27 25 25 25 25 24 22 21 22 23 22 22 21 21 20 21 22 23 23 23 24 24 24 25 25 25 26 26 26 27 26 26 26 26 27 29 30 30 31 31 31 32 34 33 31 31 31 30 29 28 29 31 32 31 31
5 6 6 7 6 5 4 6 10 12 12 12 11 9 7 6 6 8 9 8 5 5 6 7 10 13 15 16 19 23 25 25 25 24 24 24 24 23 23 23 23 23 23 22 22 23 24 26 27 26 26 26 25 25 26 26 27 28 28 28 27 26 26 26 27 29 31 32 33 34 34 33 33 32 31 30 30 30 30 29 29 29 30 29 29
5 5 6 6 6 6 6 7 9 11 12 11 9 8 9 9 7 7 9 9 5 6 6 5 6 10 13 13 14 17 21 24 24 24 23 23 23 23 23 23 23 24 23 23 24 25 26 27 28 29 28 28 28 28 28 28 28 29 29 28 28 27 27 27 28 30 32 34 35 35 35 33 32 32 31 30 30 30 30 29 28 28 28 28 28
7 7 6 5 4 4 5 6 8 11 10 10 11 11 12 12 11 8 8 8 6 6 6 6 6 7 10 12 12 13 16 20 23 23 22 22 21 21 22 22 23 23 24 24 24 26 27 28 29 30 30 31 31 31 30 30 30 30 30 30 30 29 29 29 30 30 32 34 35 35 34 33 32 32 31 30 30 30 28 28 28 27 27 27 26
11 12 12 10 7 5 5 5 7 8 8 11 11 11 12 13 13 10 8 9 8 7 7 7 7 6 7 11 13 11 12 15 19 21 21 21 20 20 20 21 22 22 23 24 25 26 27 29 30 31 32 32 32 32 32 32 32 32 32 33 33 32 32 32 32 32 32 32 34 34 33 32 31 30 30 29 28 27 26 26 26 27 27 27 26
15 16 16 16 14 12 11 10 10 10 8 8 8 11 15 16 16 16 16 17 15 11 9 9 9 8 8 10 13 13 12 12 15 18 19 20 20 19 18 19 21 22 22 24 25 26 27 28 29 30 31 31 32 33 33 33 33 34 34 34 34 34 33 32 32 32 31 31 32 32 32 31 29 29 28 27 26 25 24 24 25 26 27 26 26
15 16 16 17 16 15 16 17 16 16 16 13 13 16 20 21 20 21 21 22 23 20 14 12 13 14 11 10 11 13 13 12 13 14 16 18 20 20 19 18 20 21 23 24 24 25 27 27 28 29 30 30 31 31 32 32 33 33 33 33 33 33 32 32 32 31 31 30 30 30 30 29 28 27 26 25 24 24 25 25 25 26 26 25 25
17 16 16 17 16 16 16 17 17 18 20 19 18 19 21 22 21 21 21 21 22 24 22 18 17 17 17 15 13 13 14 14 14 14 13 14 16 19 20 19 18 19 21 23 24 25 26 26 27 28 29 29 30 30 30 30 31 31 31 30 30 30 30 30 29 29 28 29 29 28 28 28 27 26 25 24 24 24 25 25 24 25 25 25 24
17 17 17 17 17 16 16 17 17 17 18 19 18 19 20 20 20 21 22 22 21 22 23 23 21 20 20 20 19 16 14 14 14 14 13 12 12 15 18 19 19 18 18 20 22 24 25 26 26 27 28 29 29 29 28 28 29 28 28 27 26 26 26 26 25 25 25 24 24 25 25 25 25 24 23 23 23 23 24 24 23 23 24 24 24
18 18 18 18 18 17 17 17 17 17 18 19 18 18 19 20 19 20 22 22 22 21 22 22 22 22 21 22 22 19 16 14 14 15 14 12 11 10 13 16 19 18 18 18 20 22 24 24 24 25 26 26 26 25 25 24 24 24 24 23 23 23 22 22 22 21 19 19 20 22 23 24 24 24 23 23 23 23 23 23 23 23 23 23 21
Wind_Direction
183 183 184 187 189 192 194 195 196 198 201 203 208 215 220 226 232 238 244 252 257 258 261 267 273 277 279 280 281 281 282 281 280 278 277 276 276 275 276 276 276 276 277 275 272 271 272 272 272 268 262 252 245 243 242 239 237 235 233 231 230 228 225 224 226 243 250 249 241 236 232 214 194 181 179 176 176 188 199 199 196 194 194 195 198
184 184 184 187 190 192 193 194 196 197 200 204 210 217 224 231 236 240 246 251 255 259 265 271 275 277 278 278 278 278 279 280 281 280 278 275 274 274 274 273 273 273 273 273 272 270 271 272 273 272 268 260 249 242 240 239 238 237 234 229 228 228 224 222 223 230 242 244 239 230 223 213 204 194 185 179 181 190 195 194 195 196 195 195 195
184 183 184 186 188 190 191 192 195 198 201 207 213 219 227 234 238 242 248 254 259 264 269 273 275 277 277 278 278 278 279 280 280 279 278 276 274 274 273 271 271 270 269 270 270 269 269 270 271 273 272 270 260 247 240 238 237 237 236 234 232 231 227 223 223 225 232 237 235 229 217 206 205 202 191 185 187 191 193 192 193 194 194 194 195
183 181 182 185 186 188 190 191 195 198 202 208 215 223 230 235 240 246 252 259 267 271 273 274 274 276 277 279 280 279 279 279 279 278 275 274 274 273 272 271 269 269 267 268 268 268 267 266 266 269 271 274 273 262 248 239 235 236 238 238 235 235 233 226 224 225 226 232 234 232 223 206 201 198 187 181 184 188 187 186 187 189 190 191 195
181 181 180 182 183 187 190 192 195 199 204 210 217 226 232 237 243 250 257 265 271 274 276 276 276 277 278 278 279 278 279 278 277 277 275 273 273 271 270 269 269 269 267 267 267 266 266 266 264 264 266 269 272 271 264 250 238 235 237 239 237 236 236 230 227 227 224 226 228 225 219 206 200 199 187 175 171 174 177 179 182 184 185 189 194
180 181 180 180 182 186 190 193 197 200 206 212 220 227 232 238 247 255 261 269 274 276 279 280 280 280 279 279 278 277 278 277 276 275 274 273 273 272 271 269 269 269 268 268 267 265 265 266 265 263 262 263 264 266 269 266 254 240 235 237 238 238 237 232 230 228 225 225 222 210 200 196 196 195 184 175 169 165 167 172 178 181 184 189 193
180 180 179 179 182 186 190 194 198 201 208 214 219 226 232 240 251 257 263 272 277 280 282 283 284 285 283 282 281 279 279 278 277 277 277 275 273 271 271 271 270 269 268 267 267 266 264 264 265 264 262 261 261 261 262 266 269 261 248 241 238 238 239 237 232 227 222 222 219 207 195 192 194 187 176 173 171 166 165 164 165 176 188 193 193
179 178 178 180 181 186 191 194 198 201 206 212 217 226 234 242 251 259 268 275 278 281 284 286 287 287 285 283 282 281 280 278 276 277 277 276 274 272 271 270 269 269 268 268 268 268 267 265 264 264 263 261 260 259 258 259 265 269 264 254 244 238 238 239 237 232 225 221 217 206 195 192 191 185 176 172 168 168 172 170 168 178 189 194 194
176 177 178 179 180 185 188 190 196 199 202 211 219 226 234 244 255 265 271 274 278 282 286 287 288 288 287 286 284 282 280 277 274 273 274 274 274 274 274 272 271 270 269 268 267 267 268 267 265 264 264 263 261 259 259 257 257 260 261 261 259 252 244 238 235 231 226 225 218 203 195 192 185 178 178 182 179 176 177 176 176 180 183 185 191
175 177 178 177 179 183 186 188 193 198 205 215 219 224 236 250 261 267 270 274 280 283 285 289 291 292 291 289 287 285 282 279 277 274 273 273 274 274 273 273 274 275 275 274 272 269 267 267 267 266 265 265 264 262 261 258 257 256 256 257 261 264 261 252 242 232 223 222 218 204 197 194 185 179 182 188 186 178 176 176 175 174 172 173 184
175 176 176 176 178 182 186 190 195 202 210 213 216 230 246 256 263 268 273 278 281 283 287 292 294 293 292 290 288 286 283 282 281 280 278 278 278 277 274 272 271 271 272 275 277 276 272 269 268 268 267 266 265 264 263 261 258 255 255 254 255 257 259 259 256 246 232 224 217 210 205 194 185 183 184 186 186 181 179 178 174 170 171 173 179
175 175 176 175 178 183 187 192 199 206 211 214 224 241 252 258 264 270 274 279 282 286 292 295 293 292 291 290 288 286 286 285 283 283 283 283 283 282 280 277 272 268 266 266 270 274 274 273 271 269 267 267 266 265 264 263 261 258 255 254 253 253 254 255 256 254 245 232 217 213 213 199 185 186 186 185 187 185 182 182 179 177 179 183 183
175 174 175 175 177 184 188 194 203 207 211 222 235 247 255 259 264 270 275 280 285 290 295 295 294 293 291 289 288 287 287 286 285 285 286 286 286 286 285 282 276 271 268 264 264 266 269 271 272 270 268 267 266 265 263 263 263 262 259 256 254 252 252 253 255 255 253 247 232 221 218 205 192 191 191 188 186 183 182 185 186 185 186 191 192
175 173 175 177 178 183 188 194 203 209 218 231 241 249 256 261 267 273 278 284 291 297 298 297 295 293 291 289 287 286 284 284 285 285 285 284 284 285 286 284 280 275 272 268 265 264 265 266 267 268 268 267 266 265 263 261 261 261 258 255 254 252 251 251 253 254 253 250 244 236 227 215 202 196 195 193 189 186 185 187 188 190 194 197 197
174 171 173 176 176 181 190 198 205 215 228 239 246 253 260 264 269 276 282 291 300 302 301 299 295 292 291 290 288 285 283 283 285 286 285 285 284 283 281 281 279 276 273 270 267 265 264 263 264 264 264 264 263 263 264 264 263 262 258 252 249 249 250 250 250 251 250 246 243 241 236 226 212 201 198 198 197 195 193 192 191 191 192 192 190
173 168 167 169 175 186 195 204 214 225 237 245 250 256 261 267 273 282 292 300 303 302 301 299 296 295 294 293 291 289 288 288 289 290 290 291 291 287 281 277 276 275 273 271 269 266 264 262 262 261 260 260 260 260 263 266 268 270 268 262 253 247 247 249 250 249 248 245 242 241 239 229 213 204 202 201 200 198 194 191 189 184 180 177 175
172 169 170 171 179 194 208 219 227 235 242 250 257 261 268 278 288 298 306 309 306 305 303 300 299 298 296 294 293 292 292 293 293 292 293 294 294 292 285 279 276 273 272 271 269 267 264 261 261 260 259 258 257 258 260 263 267 271 272 272 269 259 250 248 248 248 248 247 243 240 239 231 215 208 208 205 200 194 185 181 182 179 175 172 171
166 170 177 181 188 199 216 231 239 246 253 260 271 280 287 295 299 302 307 312 312 311 308 303 299 298 297 296 296 295 295 295 295 294 294 294 293 291 287 281 277 273 271 271 269 267 264 261 258 257 257 256 255 256 256 258 263 267 269 271 272 269 261 251 245 244 243 242 240 236 233 231 221 214 214 210 202 194 188 187 185 180 176 176 172
175 172 164 164 183 201 219 236 244 255 265 275 287 295 298 298 297 300 308 318 319 315 312 306 301 300 299 299 298 297 296 295 295 294 294 294 294 292 287 280 275 273 271 270 268 265 263 261 257 254 255 255 255 255 254 255 258 261 265 269 267 267 267 256 243 238 233 228 225 223 221 220 216 211 211 210 206 200 199 197 189 181 180 178 170
151 128 121 131 176 216 226 235 244 259 275 290 295 296 298 296 298 307 315 319 318 315 312 307 303 302 301 300 299 297 296 296 295 295 294 294 294 293 289 280 273 271 269 267 265 262 260 259 256 254 254 254 253 253 251 251 254 256 261 265 262 264 277 270 247 235 229 220 213 212 212 211 210 209 206 205 203 201 202 200 192 187 185 178 172
103 99 105 139 200 224 229 239 260 274 286 297 296 293 295 296 302 322 326 322 320 316 310 305 302 301 301 300 299 297 296 296 295 294 294 292 292 293 291 284 277 271 267 264 261 260 259 257 256 255 253 253 252 251 249 249 250 252 256 259 258 259 274 280 254 232 222 214 207 203 204 204 205 205 202 200 198 196 199 200 196 193 188 182 180
102 114 141 175 213 227 231 251 271 280 287 290 289 290 293 294 305 335 334 328 326 320 314 310 306 303 301 300 298 296 296 296 294 293 293 293 293 293 291 289 285 276 268 263 260 259 258 257 257 256 254 252 251 249 248 248 248 249 251 254 256 256 263 273 256 225 207 201 197 193 194 196 195 194 193 193 192 192 196 199 195 194 193 191 191
115 146 174 196 224 230 232 253 269 282 289 290 292 295 295 294 310 329 329 328 324 317 314 311 307 305 302 299 298 295 294 294 293 292 294 295 295 295 292 292 290 283 274 266 262 260 258 257 256 256 254 252 249 247 248 248 248 248 250 253 255 254 257 263 249 217 195 189 185 180 183 186 185 184 184 185 186 190 194 194 192 194 195 196 197
127 170 194 207 215 226 248 278 300 302 301 304 301 297 295 301 318 323 321 321 314 305 303 304 304 304 302 300 297 295 293 294 294 294 295 296 296 296 294 293 290 286 280 273 267 262 258 255 255 255 253 250 247 245 247 249 248 248 249 251 252 251 250 249 234 205 184 179 174 170 172 176 176 176 178 180 184 187 188 187 188 191 192 192 193
160 190 200 197 190 248 298 337 335 322 316 313 304 297 298 310 320 315 307 309 307 302 304 306 306 305 304 300 297 295 295 296 296 295 297 299 298 297 296 294 290 286 282 277 271 265 259 256 255 254 252 249 245 243 245 247 249 250 249 248 248 246 240 233 220 198 180 176 172 167 168 171 172 172 173 176 178 178 178 177 178 180 181 180 178
179 191 187 164 134 28 6 13 345 326 324 324 321 317 313 316 323 319 310 312 311 309 310 310 307 305 304 301 299 299 298 298 297 298 300 301 300 299 298 297 295 291 284 278 273 267 262 259 255 250 247 245 242 241 244 247 249 250 250 248 243 236 227 218 208 192 180 175 169 163 162 164 167 167 168 170 171 171 173 173 169 169 171 167 159
174 173 169 138 109 44 6 2 334 334 344 343 337 333 327 327 332 328 319 317 314 311 311 311 309 305 304 303 303 303 301 299 299 301 303 303 302 302 302 300 298 295 287 279 273 268 265 262 255 247 243 242 242 242 247 253 256 254 250 244 236 226 217 209 202 193 184 173 162 157 157 159 161 162 162 163 163 165 170 169 160 156 159 156 147
167 168 163 128 76 27 8 0 342 353 355 346 341 344 342 336 330 324 318 314 313 316 319 317 313 308 306 307 307 305 302 301 302 304 307 307 306 306 306 303 300 296 289 280 274 271 268 262 251 241 237 239 243 247 252 260 264 257 244 233 223 214 205 202 200 191 177 164 155 152 153 155 157 157 157 158 158 158 163 162 154 149 149 147 139
174 175 161 132 84 31 3 5 10 7 359 348 349 354 347 335 326 319 312 319 337 348 340 326 317 314 311 310 311 307 302 303 308 310 312 311 310 309 307 306 305 302 293 282 276 271 262 246 231 225 227 232 239 245 250 254 253 242 225 210 202 196 191 190 186 173 162 157 153 151 151 151 152 153 152 150 150 152 157 156 151 148 147 143 137
198 181 157 123 83 45 3 2 14 12 2 357 0 356 343 329 323 322 324 345 4 4 354 337 323 319 316 315 315 312 307 309 315 318 318 317 315 312 310 312 314 312 300 284 273 260 240 219 213 215 218 222 228 233 235 232 223 208 195 187 183 180 178 176 171 164 160 158 154 152 151 149 149 151 150 147 145 148 152 152 150 148 145 140 135
204 157 118 101 101 80 9 6 10 12 12 12 7 352 338 332 324 318 325 353 1 360 356 344 330 325 323 322 321 320 318 320 324 325 324 322 319 315 313 316 323 326 312 286 262 237 213 201 203 207 209 212 217 218 214 205 191 178 172 171 172 171 168 166 164 162 158 155 152 151 151 151 151 152 151 148 146 146 147 147 147 146 144 141 138
157 89 73 64 82 335 7 13 10 15 24 23 7 344 339 352 351 319 299 314 340 351 355 349 338 332 331 329 328 326 327 330 332 331 330 329 325 319 316 317 326 335 329 294 242 211 201 199 197 197 199 202 204 201 193 181 170 162 157 154 157 161 162 163 163 162 157 153 151 150 150 151 152 152 150 148 145 144 144 145 144 143 141 141 140
81 76 56 42 16 345 7 17 11 18 33 29 3 336 337 2 359 328 307 311 326 342 354 353 344 340 338 336 335 334 335 338 338 337 338 338 333 326 321 322 329 342 354 7 45 120 168 192 194 194 195 193 190 186 178 169 163 159 156 153 153 156 159 160 161 160 157 155 153 151 151 152 151 150 149 148 146 144 143 144 143 143 142 142 143
97 90 47 35 15 9 17 11 9 25 43 30 358 332 328 9 7 339 327 328 327 337 350 353 350 348 344 341 342 343 344 345 344 343 345 346 345 341 341 349 357 6 20 30 38 52 73 94 121 167 191 188 184 180 174 166 162 158 154 152 152 152 153 154 154 153 152 152 151 150 151 152 152 150 148 147 146 145 145 144 145 147 147 148 149
143 183 257 291 334 20 19 5 11 32 27 358 342 332 339 21 14 345 336 343 336 337 346 350 353 354 350 346 347 349 350 349 348 350 352 353 357 2 6 9 12 18 27 34 39 48 60 73 89 99 114 151 166 171 168 162 158 155 151 148 147 148 149 148 147 147 147 148 149 149 150 152 153 151 150 149 148 148 149 149 149 151 153 152 149
208 247 241 48 25 24 15 0 3 7 346 324 328 348 7 23 10 344 341 349 339 334 342 349 353 355 353 351 352 353 354 354 353 355 359 0 5 12 14 11 9 14 22 30 40 54 65 73 86 98 107 119 133 148 153 151 150 150 149 147 146 147 147 146 145 144 144 144 146 147 148 150 151 151 150 150 150 150 149 147 146 149 154 150 141
274 290 29 45 24 11 6 354 346 339 330 328 355 18 21 18 358 342 349 354 339 330 337 345 352 355 353 354 356 356 357 358 359 1 5 7 10 13 15 16 18 20 23 28 38 52 63 75 92 106 116 124 129 134 138 138 139 140 142 142 143 144 145 145 144 145 144 143 144 145 146 147 150 151 150 147 145 145 144 142 143 149 151 143 133
19 355 16 14 356 353 351 343 341 337 331 335 11 34 27 11 347 341 0 4 349 335 332 340 351 356 353 353 357 360 0 2 4 6 7 9 11 13 14 18 24 27 28 33 43 53 61 71 85 97 107 116 124 128 129 129 130 132 134 135 137 138 139 140 140 141 141 141 142 144 145 146 149 151 148 144 143 143 142 143 146 149 144 136 129
37 37 36 13 358 351 336 337 349 346 336 343 25 37 20 356 341 348 12 9 355 343 334 336 346 354 356 357 359 2 3 3 4 5 6 8 11 14 16 19 24 28 31 36 45 55 63 72 82 90 97 103 110 116 120 122 123 125 127 129 131 133 134 135 135 137 138 139 140 142 143 145 146 146 144 142 141 140 141 143 146 143 134 127 125
10 14 5 348 346 351 342 349 1 350 340 357 41 30 359 347 355 2 10 12 2 353 346 340 340 348 358 2 4 6 7 5 2 4 7 9 12 16 19 22 25 30 35 41 47 55 63 71 79 86 92 97 102 107 112 115 118 120 122 123 125 127 129 131 132 134 135 136 138 139 139 140 140 139 139 139 138 137 138 140 140 134 127 123 124
344 340 333 325 333 2 360 0 1 347 338 360 44 13 345 359 18 9 360 7 6 358 358 354 345 345 355 3 8 12 13 10 7 7 9 12 16 22 25 28 33 37 42 47 53 59 65 71 76 82 87 92 99 104 106 108 112 115 116 118 119 120 123 126 128 130 132 133 133 133 133 134 134 134 134 134 133 133 134 134 132 128 126 126 127
356 351 337 317 319 348 1 353 346 339 333 340 356 342 333 12 29 10 351 349 359 6 10 3 353 350 352 359 8 15 19 18 15 15 15 16 21 27 32 37 43 48 52 55 61 68 73 76 78 82 85 88 94 99 102 105 109 111 112 114 114 115 117 119 122 125 127 127 127 127 126 127 129 129 128 128 128 129 129 128 127 126 125 127 128
0 358 352 335 336 4 10 338 329 326 319 317 324 328 334 2 23 4 344 340 5 36 25 5 357 358 357 357 4 15 22 25 23 22 22 22 23 30 38 44 49 54 59 62 67 74 81 83 83 83 85 88 91 94 97 101 106 108 110 110 110 111 112 113 116 121 122 122 122 123 123 124 126 126 125 125 126 126 126 125 126 125 126 127 128
17 20 18 10 10 15 3 340 325 314 310 319 343 3 5 6 15 9 353 353 27 61 47 24 9 4 3 3 5 12 23 29 30 29 30 29 28 33 41 46 51 56 62 67 72 78 84 87 87 86 86 88 91 93 96 99 102 105 106 107 106 106 108 109 111 117 120 119 119 119 120 121 123 123 123 125 127 127 126 127 127 127 127 128 128
30 31 32 32 27 13 7 358 334 319 331 5 21 15 11 16 22 14 358 3 33 69 71 56 38 18 13 15 13 13 23 31 33 33 35 36 37 40 45 48 52 57 63 68 74 79 84 89 91 90 88 88 91 93 95 98 100 100 101 102 102 102 104 106 109 112 115 116 117 118 119 120 121 121 123 125 127 127 126 127 127 127 126 126 126
33 30 25 24 29 34 36 22 349 341 22 47 32 5 5 19 22 14 8 16 35 70 89 72 53 46 39 32 26 22 27 34 38 39 39 42 47 51 55 57 58 61 66 71 76 81 86 90 94 94 92 91 93 94 95 97 99 100 101 102 103 103 105 108 109 110 111 113 115 117 119 118 118 119 121 123 125 125 125 126 127 127 126 125 124
34 32 24 21 24 25 22 17 6 1 25 53 40 14 11 14 16 17 16 15 20 41 75 77 62 57 57 48 40 37 36 39 43 44 42 45 51 57 64 69 69 68 71 75 79 83 87 91 94 96 95 94 95 96 96 95 96 98 101 104 106 107 110 112 113 113 114 116 117 118 118 117 117 119 122 123 125 127 128 128 128 127 127 126 125
36 35 29 25 27 24 17 16 16 15 18 27 34 28 20 17 18 20 17 12 11 16 31 54 64 61 59 55 49 47 46 44 46 46 44 44 49 55 64 74 78 78 78 80 82 85 89 92 95 97 98 99 99 100 100 100 99 99 101 105 108 111 113 114 115 116 117 119 120 120 120 120 121 123 126 128 130 132 131 130 129 128 125 124 123
38 36 33 31 31 28 21 19 22 24 23 23 25 26 22 19 18 15 13 11 10 9 14 27 42 49 52 50 45 47 51 48 47 50 50 45 45 51 59 68 78 83 85 87 89 91 92 94 96 98 99 101 102 104 105 105 104 103 103 106 109 112 114 114 115 116 119 121 123 124 124 125 127 130 133 135 136 135 134 133 132 128 125 123 122
35 34 34 33 33 32 29 26 26 28 27 25 25 24 22 20 17 14 12 12 10 8 11 17 21 28 38 41 39 43 52 54 50 52 55 53 49 51 56 63 72 81 88 92 96 98 98 99 99 99 99 99 100 101 102 101 101 101 103 106 109 112 113 114 115 117 120 125 128 129 130 131 133 135 137 137 137 136 135 134 133 130 127 125 124
33 33 33 33 34 33 32 30 29 28 27 27 28 26 23 21 19 15 13 13 11 10 12 16 17 20 28 33 33 36 46 55 55 52 52 54 56 56 58 63 69 76 85 93 99 102 103 101 101 102 103 103 102 102 101 99 98 99 101 104 106 108 110 112 112 113 118 126 131 134 137 138 138 138 137 137 136 136 134 132 130 129 128 127 124